| time (UTC) | temp C | wind direction | speed KPH | gust KPH | rain 1hr cm | rain 24hr cm | rain mn cm | humidity % | barometer mb |
| 20260507061005 | 8 | 71 | 1.6 | 8.0 | 0.00 | 0.00 | 0.00 | 65 | 1013.0 |
| 20260507060504 | 8 | 79 | 4.8 | 8.0 | 0.00 | 0.00 | 0.00 | 66 | 1013.0 |
| 20260507060005 | 7 | 87 | 6.4 | 9.7 | 0.00 | 0.00 | 0.00 | 68 | 1013.0 |
| 20260507055504 | 7 | 95 | 8.0 | 11.3 | 0.00 | 0.00 | 0.00 | 70 | 1014.0 |
| 20260507054004 | 6 | 94 | 8.0 | 11.3 | 0.00 | 0.00 | 0.00 | 73 | 1014.0 |
| 20260507053505 | 5 | 93 | 8.0 | 11.3 | 0.00 | 0.00 | 0.00 | 75 | 1014.0 |
| 20260507052005 | 5 | 93 | 8.0 | 11.3 | 0.00 | 0.00 | 0.00 | 77 | 1014.0 |
| 20260507051504 | 4 | 88 | 6.4 | 11.3 | 0.00 | 0.00 | 0.00 | 78 | 1014.0 |
| 20260507050504 | 4 | 95 | 9.7 | 14.5 | 0.00 | 0.00 | 0.00 | 79 | 1014.0 |
| 20260507050006 | 4 | 95 | 9.7 | 14.5 | 0.00 | 0.00 | 0.00 | 79 | 1014.0 |
| 20260507045005 | 4 | 101 | 9.7 | 12.9 | 0.00 | 0.00 | 0.00 | 82 | 1014.0 |
| 20260507044004 | 3 | 107 | 9.7 | 14.5 | 0.00 | 0.00 | 0.00 | 83 | 1014.0 |
| 20260507042504 | 3 | 87 | 1.6 | 8.0 | 0.00 | 0.00 | 0.00 | 80 | 1014.0 |
| 20260507042004 | 3 | 0 | 0.0 | 0.0 | 0.00 | 0.00 | 0.00 | 79 | 1014.0 |
| 20260507041505 | 3 | 0 | 0.0 | 0.0 | 0.00 | 0.00 | 0.00 | 79 | 1014.0 |
| 20260507041006 | 3 | 0 | 0.0 | 0.0 | 0.00 | 0.00 | 0.00 | 80 | 1014.0 |
| 20260507040504 | 3 | 0 | 0.0 | 0.0 | 0.00 | 0.00 | 0.00 | 80 | 1014.0 |
| 20260507040005 | 2 | 0 | 0.0 | 0.0 | 0.00 | 0.00 | 0.00 | 80 | 1014.0 |
| 20260507035504 | 2 | 0 | 0.0 | 0.0 | 0.00 | 0.00 | 0.00 | 80 | 1014.0 |
| 20260507035006 | 2 | 0 | 0.0 | 0.0 | 0.00 | 0.00 | 0.00 | 80 | 1014.0 |
| 20260507034004 | 2 | 0 | 0.0 | 0.0 | 0.00 | 0.00 | 0.00 | 79 | 1013.0 |
| 20260507033505 | 2 | 0 | 0.0 | 0.0 | 0.00 | 0.00 | 0.00 | 79 | 1013.0 |
| 20260507033005 | 2 | 0 | 0.0 | 0.0 | 0.00 | 0.00 | 0.00 | 79 | 1013.0 |
| 20260507032504 | 2 | 0 | 0.0 | 0.0 | 0.00 | 0.00 | 0.00 | 79 | 1013.0 |
| 20260507032005 | 2 | 0 | 0.0 | 0.0 | 0.00 | 0.00 | 0.00 | 79 | 1013.0 |
| 20260507031504 | 2 | 0 | 0.0 | 0.0 | 0.00 | 0.00 | 0.00 | 79 | 1013.0 |
| 20260507031006 | 2 | 0 | 0.0 | 0.0 | 0.00 | 0.00 | 0.00 | 79 | 1012.0 |
| 20260507030504 | 2 | 0 | 0.0 | 0.0 | 0.00 | 0.00 | 0.00 | 79 | 1012.0 |
| 20260507030004 | 2 | 0 | 0.0 | 0.0 | 0.00 | 0.00 | 0.00 | 79 | 1012.0 |
| 20260507025006 | 2 | 0 | 0.0 | 0.0 | 0.00 | 0.00 | 0.00 | 79 | 1012.0 |
| 20260507024504 | 2 | 0 | 0.0 | 0.0 | 0.00 | 0.00 | 0.00 | 78 | 1012.0 |
| 20260507024005 | 2 | 0 | 0.0 | 0.0 | 0.00 | 0.00 | 0.00 | 78 | 1012.0 |
| 20260507023504 | 2 | 0 | 0.0 | 0.0 | 0.00 | 0.00 | 0.00 | 77 | 1012.0 |
| 20260507023005 | 2 | 0 | 0.0 | 0.0 | 0.00 | 0.00 | 0.00 | 76 | 1012.0 |
| 20260507022505 | 2 | 0 | 0.0 | 0.0 | 0.00 | 0.00 | 0.00 | 76 | 1012.0 |
| 20260507022005 | 2 | 0 | 0.0 | 0.0 | 0.00 | 0.00 | 0.00 | 76 | 1012.0 |
| 20260507021005 | 2 | 0 | 0.0 | 0.0 | 0.00 | 0.00 | 0.00 | 76 | 1012.0 |
| 20260507020504 | 2 | 0 | 0.0 | 0.0 | 0.00 | 0.00 | 0.00 | 76 | 1012.0 |
| 20260507020005 | 2 | 0 | 0.0 | 0.0 | 0.00 | 0.00 | 0.00 | 76 | 1012.0 |
| 20260507015504 | 2 | 0 | 0.0 | 0.0 | 0.00 | 0.00 | 0.00 | 75 | 1012.0 |
| 20260507015004 | 2 | 0 | 0.0 | 0.0 | 0.00 | 0.00 | 0.00 | 75 | 1012.0 |
| 20260507014505 | 2 | 0 | 0.0 | 0.0 | 0.00 | 0.00 | 0.00 | 75 | 1012.0 |
| 20260507014004 | 2 | 0 | 0.0 | 0.0 | 0.00 | 0.00 | 0.00 | 74 | 1012.0 |
| 20260507013505 | 2 | 0 | 0.0 | 0.0 | 0.00 | 0.00 | 0.00 | 74 | 1012.0 |
| 20260507013004 | 2 | 0 | 0.0 | 0.0 | 0.00 | 0.00 | 0.00 | 73 | 1012.0 |
| 20260507012505 | 2 | 0 | 0.0 | 0.0 | 0.00 | 0.00 | 0.00 | 73 | 1012.0 |
| 20260507012005 | 2 | 0 | 0.0 | 0.0 | 0.00 | 0.00 | 0.00 | 73 | 1012.0 |
| 20260507011504 | 2 | 0 | 0.0 | 0.0 | 0.00 | 0.00 | 0.00 | 73 | 1012.0 |
| 20260507010506 | 2 | 0 | 0.0 | 0.0 | 0.00 | 0.00 | 0.00 | 73 | 1011.0 |
| 20260507010005 | 2 | 0 | 0.0 | 0.0 | 0.00 | 0.00 | 0.00 | 72 | 1011.0 |
| 20260507005505 | 3 | 0 | 0.0 | 0.0 | 0.00 | 0.00 | 0.00 | 71 | 1012.0 |
| 20260507005004 | 3 | 0 | 0.0 | 0.0 | 0.00 | 0.00 | 0.00 | 71 | 1012.0 |
| 20260507004504 | 3 | 0 | 0.0 | 0.0 | 0.00 | 0.00 | 0.00 | 71 | 1012.0 |
| 20260507004006 | 3 | 0 | 0.0 | 0.0 | 0.00 | 0.00 | 0.00 | 72 | 1011.0 |
| 20260507003504 | 3 | 0 | 0.0 | 0.0 | 0.00 | 0.00 | 0.00 | 72 | 1011.0 |
| 20260507003004 | 3 | 112 | 0.0 | 4.8 | 0.00 | 0.00 | 0.00 | 71 | 1011.0 |
| 20260507002505 | 3 | 104 | 3.2 | 8.0 | 0.00 | 0.00 | 0.00 | 71 | 1012.0 |
| 20260507001504 | 3 | 112 | 0.0 | 6.4 | 0.00 | 0.00 | 0.00 | 70 | 1012.0 |
| 20260507001004 | 3 | 0 | 0.0 | 0.0 | 0.00 | 0.00 | 0.00 | 69 | 1012.0 |
| 20260507000505 | 3 | 0 | 0.0 | 0.0 | 0.00 | 0.00 | 0.00 | 69 | 1012.0 |
| 20260507000006 | 3 | 0 | 0.0 | 0.0 | 0.00 | 0.00 | 0.00 | 68 | 1012.0 |
| 20260506235504 | 3 | 0 | 0.0 | 0.0 | 0.00 | 0.00 | 0.00 | 67 | 1013.0 |
| 20260506235004 | 4 | 0 | 0.0 | 0.0 | 0.00 | 0.00 | 0.00 | 67 | 1013.0 |
| 20260506234505 | 4 | 107 | 1.6 | 6.4 | 0.00 | 0.00 | 0.00 | 67 | 1013.0 |
| 20260506234005 | 4 | 110 | 3.2 | 8.0 | 0.00 | 0.00 | 0.00 | 66 | 1012.0 |
| 20260506233006 | 5 | 94 | 1.6 | 6.4 | 0.00 | 0.00 | 0.00 | 65 | 1012.0 |
| 20260506232504 | 5 | 0 | 0.0 | 0.0 | 0.00 | 0.00 | 0.00 | 67 | 1013.0 |
| 20260506232005 | 5 | 0 | 0.0 | 0.0 | 0.00 | 0.00 | 0.00 | 66 | 1013.0 |
| 20260506231504 | 5 | 0 | 0.0 | 0.0 | 0.00 | 0.00 | 0.00 | 67 | 1013.0 |
| 20260506231005 | 5 | 0 | 0.0 | 0.0 | 0.00 | 0.00 | 0.00 | 67 | 1012.0 |
| 20260506230504 | 5 | 0 | 0.0 | 0.0 | 0.00 | 0.00 | 0.00 | 68 | 1012.0 |
| 20260506230005 | 5 | 0 | 0.0 | 0.0 | 0.00 | 0.00 | 0.00 | 67 | 1012.0 |
| 20260506225006 | 5 | 0 | 0.0 | 0.0 | 0.00 | 0.00 | 0.00 | 66 | 1012.0 |
| 20260506224504 | 5 | 0 | 0.0 | 0.0 | 0.00 | 0.00 | 0.00 | 65 | 1012.0 |
| 20260506224004 | 5 | 0 | 0.0 | 0.0 | 0.00 | 0.00 | 0.00 | 65 | 1012.0 |
| 20260506223504 | 5 | 0 | 0.0 | 0.0 | 0.00 | 0.00 | 0.00 | 64 | 1012.0 |
| 20260506223004 | 5 | 0 | 0.0 | 0.0 | 0.00 | 0.00 | 0.00 | 63 | 1012.0 |
| 20260506222005 | 5 | 0 | 0.0 | 0.0 | 0.00 | 0.00 | 0.00 | 60 | 1012.0 |
| 20260506221504 | 5 | 0 | 0.0 | 0.0 | 0.00 | 0.00 | 0.00 | 59 | 1012.0 |
| 20260506221004 | 5 | 0 | 0.0 | 0.0 | 0.00 | 0.00 | 0.00 | 59 | 1012.0 |
| 20260506220505 | 6 | 0 | 0.0 | 0.0 | 0.00 | 0.00 | 0.00 | 58 | 1012.0 |
| 20260506220005 | 6 | 0 | 0.0 | 0.0 | 0.00 | 0.00 | 0.00 | 57 | 1012.0 |
| 20260506215505 | 6 | 0 | 0.0 | 0.0 | 0.00 | 0.00 | 0.00 | 56 | 1012.0 |
| 20260506215005 | 6 | 198 | 0.0 | 8.0 | 0.00 | 0.00 | 0.00 | 55 | 1012.0 |
| 20260506214505 | 6 | 195 | 1.6 | 8.0 | 0.00 | 0.00 | 0.00 | 55 | 1012.0 |
| 20260506214004 | 6 | 195 | 0.0 | 3.2 | 0.00 | 0.00 | 0.00 | 53 | 1011.0 |
| 20260506213506 | 6 | 200 | 0.0 | 3.2 | 0.00 | 0.00 | 0.00 | 52 | 1011.0 |
| 20260506213005 | 6 | 198 | 1.6 | 4.8 | 0.00 | 0.00 | 0.00 | 52 | 1011.0 |
| 20260506212504 | 6 | 197 | 1.6 | 4.8 | 0.00 | 0.00 | 0.00 | 51 | 1011.0 |
| 20260506212006 | 7 | 0 | 0.0 | 0.0 | 0.00 | 0.00 | 0.00 | 50 | 1011.0 |
| 20260506211506 | 7 | 0 | 0.0 | 0.0 | 0.00 | 0.00 | 0.00 | 49 | 1011.0 |
| 20260506211004 | 7 | 162 | 0.0 | 4.8 | 0.00 | 0.00 | 0.00 | 47 | 1011.0 |
| 20260506210505 | 7 | 170 | 0.0 | 4.8 | 0.00 | 0.00 | 0.00 | 46 | 1011.0 |
| 20260506210004 | 7 | 203 | 0.0 | 1.6 | 0.00 | 0.00 | 0.00 | 45 | 1011.0 |
| 20260506205505 | 7 | 0 | 0.0 | 0.0 | 0.00 | 0.00 | 0.00 | 45 | 1011.0 |
| 20260506205005 | 7 | 0 | 0.0 | 0.0 | 0.00 | 0.00 | 0.00 | 45 | 1011.0 |
| 20260506204006 | 7 | 0 | 0.0 | 0.0 | 0.00 | 0.00 | 0.00 | 44 | 1011.0 |
| 20260506203005 | 7 | 0 | 0.0 | 0.0 | 0.00 | 0.00 | 0.00 | 43 | 1011.0 |
| 20260506202505 | 7 | 0 | 0.0 | 0.0 | 0.00 | 0.00 | 0.00 | 43 | 1011.0 |
| 20260506202005 | 8 | 0 | 0.0 | 0.0 | 0.00 | 0.00 | 0.00 | 43 | 1011.0 |
| 20260506201504 | 8 | 0 | 0.0 | 0.0 | 0.00 | 0.00 | 0.00 | 43 | 1011.0 |
| 20260506201005 | 8 | 0 | 0.0 | 0.0 | 0.00 | 0.00 | 0.00 | 43 | 1011.0 |
| 20260506200505 | 8 | 225 | 0.0 | 3.2 | 0.00 | 0.00 | 0.00 | 42 | 1011.0 |
| 20260506195505 | 8 | 0 | 0.0 | 0.0 | 0.00 | 0.00 | 0.00 | 42 | 1011.0 |
| 20260506195006 | 8 | 0 | 0.0 | 0.0 | 0.00 | 0.00 | 0.00 | 42 | 1011.0 |
| 20260506194504 | 8 | 0 | 0.0 | 0.0 | 0.00 | 0.00 | 0.00 | 43 | 1011.0 |
| 20260506194005 | 8 | 0 | 0.0 | 0.0 | 0.00 | 0.00 | 0.00 | 43 | 1011.0 |
| 20260506193505 | 8 | 203 | 0.0 | 1.6 | 0.00 | 0.00 | 0.00 | 42 | 1011.0 |
| 20260506193005 | 9 | 203 | 0.0 | 1.6 | 0.00 | 0.00 | 0.00 | 42 | 1011.0 |
| 20260506192004 | 9 | 0 | 0.0 | 0.0 | 0.00 | 0.00 | 0.00 | 41 | 1011.0 |
| 20260506191505 | 10 | 0 | 0.0 | 0.0 | 0.00 | 0.00 | 0.00 | 41 | 1011.0 |
| 20260506191005 | 10 | 244 | 0.0 | 3.2 | 0.00 | 0.00 | 0.00 | 41 | 1010.0 |
| 20260506190006 | 10 | 240 | 0.0 | 3.2 | 0.00 | 0.00 | 0.00 | 41 | 1010.0 |
| 20260506185504 | 10 | 248 | 0.0 | 3.2 | 0.00 | 0.00 | 0.00 | 41 | 1010.0 |
| 20260506185005 | 10 | 0 | 0.0 | 0.0 | 0.00 | 0.00 | 0.00 | 40 | 1010.0 |
| 20260506184505 | 11 | 282 | 0.0 | 4.8 | 0.00 | 0.00 | 0.00 | 40 | 1010.0 |
| 20260506184004 | 11 | 282 | 0.0 | 4.8 | 0.00 | 0.00 | 0.00 | 40 | 1010.0 |
| 20260506183006 | 11 | 248 | 0.0 | 1.6 | 0.00 | 0.00 | 0.00 | 40 | 1010.0 |
| 20260506182505 | 11 | 0 | 0.0 | 0.0 | 0.00 | 0.00 | 0.00 | 39 | 1009.0 |
| 20260506181505 | 11 | 279 | 0.0 | 6.4 | 0.00 | 0.00 | 0.00 | 39 | 1009.0 |
| 20260506181004 | 12 | 301 | 0.0 | 4.8 | 0.00 | 0.00 | 0.00 | 39 | 1010.0 |
| 20260506180005 | 12 | 294 | 0.0 | 8.0 | 0.00 | 0.00 | 0.00 | 39 | 1010.0 |
| 20260506175505 | 12 | 277 | 1.6 | 12.9 | 0.00 | 0.00 | 0.00 | 39 | 1010.0 |
| 20260506175005 | 12 | 273 | 3.2 | 12.9 | 0.00 | 0.00 | 0.00 | 39 | 1010.0 |
| 20260506174504 | 12 | 269 | 1.6 | 8.0 | 0.00 | 0.00 | 0.00 | 39 | 1010.0 |
| 20260506174005 | 13 | 294 | 1.6 | 8.0 | 0.00 | 0.00 | 0.00 | 38 | 1010.0 |
| 20260506173504 | 13 | 294 | 1.6 | 9.7 | 0.00 | 0.00 | 0.00 | 37 | 1010.0 |
| 20260506173006 | 13 | 285 | 1.6 | 9.7 | 0.00 | 0.00 | 0.00 | 39 | 1010.0 |
| 20260506172504 | 13 | 257 | 0.0 | 4.8 | 0.00 | 0.00 | 0.00 | 39 | 1010.0 |
| 20260506171504 | 13 | 302 | 3.2 | 9.7 | 0.00 | 0.00 | 0.00 | 39 | 1010.0 |
| 20260506170504 | 13 | 298 | 3.2 | 11.3 | 0.00 | 0.00 | 0.00 | 38 | 1010.0 |
| 20260506170005 | 13 | 279 | 1.6 | 8.0 | 0.00 | 0.00 | 0.00 | 39 | 1010.0 |
| 20260506165504 | 13 | 287 | 1.6 | 6.4 | 0.00 | 0.00 | 0.00 | 40 | 1010.0 |
| 20260506165005 | 13 | 297 | 3.2 | 8.0 | 0.00 | 0.00 | 0.00 | 39 | 1010.0 |
| 20260506164505 | 13 | 308 | 4.8 | 12.9 | 0.00 | 0.00 | 0.00 | 38 | 1010.0 |
| 20260506163504 | 13 | 298 | 4.8 | 11.3 | 0.00 | 0.00 | 0.00 | 37 | 1010.0 |
| 20260506161005 | 13 | 293 | 8.0 | 16.1 | 0.00 | 0.00 | 0.00 | 37 | 1010.0 |
| 20260506160504 | 14 | 309 | 9.7 | 16.1 | 0.00 | 0.00 | 0.00 | 36 | 1010.0 |
| 20260506160004 | 14 | 312 | 11.3 | 22.5 | 0.00 | 0.00 | 0.00 | 36 | 1010.0 |
| 20260506155505 | 14 | 302 | 11.3 | 22.5 | 0.00 | 0.00 | 0.00 | 37 | 1010.0 |
| 20260506155004 | 14 | 307 | 9.7 | 17.7 | 0.00 | 0.00 | 0.00 | 38 | 1010.0 |
| 20260506154505 | 14 | 310 | 11.3 | 19.3 | 0.00 | 0.00 | 0.00 | 37 | 1010.0 |
| 20260506154005 | 14 | 302 | 9.7 | 19.3 | 0.00 | 0.00 | 0.00 | 37 | 1010.0 |
| 20260506153504 | 14 | 308 | 8.0 | 17.7 | 0.00 | 0.00 | 0.00 | 39 | 1010.0 |
| 20260506153006 | 14 | 312 | 12.9 | 20.9 | 0.00 | 0.00 | 0.00 | 39 | 1010.0 |
| 20260506152504 | 14 | 311 | 12.9 | 20.9 | 0.00 | 0.00 | 0.00 | 37 | 1010.0 |
| 20260506152005 | 14 | 306 | 9.7 | 20.9 | 0.00 | 0.00 | 0.00 | 37 | 1010.0 |
| 20260506151504 | 14 | 302 | 9.7 | 17.7 | 0.00 | 0.00 | 0.00 | 38 | 1010.0 |
| 20260506151005 | 14 | 298 | 8.0 | 16.1 | 0.00 | 0.00 | 0.00 | 38 | 1010.0 |
| 20260506150504 | 14 | 298 | 8.0 | 16.1 | 0.00 | 0.00 | 0.00 | 39 | 1010.0 |
| 20260506150005 | 14 | 287 | 8.0 | 12.9 | 0.00 | 0.00 | 0.00 | 38 | 1010.0 |
| 20260506145504 | 14 | 289 | 8.0 | 17.7 | 0.00 | 0.00 | 0.00 | 38 | 1010.0 |
| 20260506145007 | 13 | 305 | 9.7 | 22.5 | 0.00 | 0.00 | 0.00 | 39 | 1010.0 |
| 20260506144504 | 13 | 299 | 8.0 | 22.5 | 0.00 | 0.00 | 0.00 | 38 | 1010.0 |
| 20260506144005 | 13 | 284 | 8.0 | 16.1 | 0.00 | 0.00 | 0.00 | 38 | 1010.0 |
| 20260506143505 | 14 | 310 | 11.3 | 24.1 | 0.00 | 0.00 | 0.00 | 40 | 1010.0 |
| 20260506143005 | 13 | 312 | 14.5 | 25.7 | 0.00 | 0.00 | 0.00 | 40 | 1010.0 |
| 20260506142004 | 14 | 305 | 11.3 | 20.9 | 0.00 | 0.00 | 0.00 | 40 | 1010.0 |
| 20260506141006 | 14 | 290 | 9.7 | 24.1 | 0.00 | 0.00 | 0.00 | 39 | 1010.0 |
| 20260506140504 | 14 | 295 | 9.7 | 24.1 | 0.00 | 0.00 | 0.00 | 39 | 1010.0 |
| 20260506140005 | 14 | 300 | 8.0 | 17.7 | 0.00 | 0.00 | 0.00 | 39 | 1010.0 |
| 20260506135005 | 14 | 321 | 16.1 | 24.1 | 0.00 | 0.00 | 0.00 | 38 | 1010.0 |
| 20260506134505 | 14 | 315 | 14.5 | 24.1 | 0.00 | 0.00 | 0.00 | 39 | 1010.0 |
| 20260506134004 | 14 | 288 | 11.3 | 20.9 | 0.00 | 0.00 | 0.00 | 41 | 1010.0 |
| 20260506133505 | 14 | 296 | 11.3 | 20.9 | 0.00 | 0.00 | 0.00 | 39 | 1010.0 |
| 20260506132505 | 15 | 300 | 11.3 | 20.9 | 0.00 | 0.00 | 0.00 | 41 | 1010.0 |
| 20260506132005 | 14 | 300 | 11.3 | 24.1 | 0.00 | 0.00 | 0.00 | 41 | 1010.0 |
| 20260506131006 | 15 | 287 | 9.7 | 17.7 | 0.00 | 0.00 | 0.00 | 41 | 1009.0 |
| 20260506130504 | 15 | 284 | 9.7 | 17.7 | 0.00 | 0.00 | 0.00 | 41 | 1009.0 |
| 20260506130005 | 15 | 284 | 8.0 | 17.7 | 0.00 | 0.00 | 0.00 | 41 | 1009.0 |
| 20260506125504 | 15 | 285 | 9.7 | 16.1 | 0.00 | 0.00 | 0.00 | 41 | 1009.0 |
| 20260506124504 | 15 | 294 | 11.3 | 24.1 | 0.00 | 0.00 | 0.00 | 41 | 1009.0 |
| 20260506124005 | 15 | 289 | 9.7 | 19.3 | 0.00 | 0.00 | 0.00 | 42 | 1009.0 |
| 20260506123504 | 15 | 311 | 12.9 | 25.7 | 0.00 | 0.00 | 0.00 | 43 | 1009.0 |
| 20260506123007 | 15 | 303 | 11.3 | 25.7 | 0.00 | 0.00 | 0.00 | 41 | 1009.0 |
| 20260506122504 | 16 | 265 | 8.0 | 24.1 | 0.00 | 0.00 | 0.00 | 40 | 1009.0 |
| 20260506122004 | 16 | 240 | 6.4 | 11.3 | 0.00 | 0.00 | 0.00 | 42 | 1009.0 |
| 20260506121005 | 16 | 246 | 6.4 | 12.9 | 0.00 | 0.00 | 0.00 | 41 | 1009.0 |
| 20260506120504 | 16 | 242 | 8.0 | 14.5 | 0.00 | 0.00 | 0.00 | 44 | 1009.0 |
| 20260506120005 | 16 | 238 | 8.0 | 16.1 | 0.00 | 0.00 | 0.00 | 43 | 1009.0 |
| 20260506115504 | 16 | 243 | 8.0 | 16.1 | 0.00 | 0.00 | 0.00 | 43 | 1009.0 |
| 20260506115006 | 16 | 250 | 6.4 | 16.1 | 0.00 | 0.00 | 0.00 | 44 | 1009.0 |
| 20260506114504 | 15 | 244 | 4.8 | 16.1 | 0.00 | 0.00 | 0.00 | 40 | 1009.0 |
| 20260506113504 | 15 | 319 | 4.8 | 11.3 | 0.00 | 0.00 | 0.00 | 35 | 1010.0 |
| 20260506113005 | 15 | 20 | 4.8 | 12.9 | 0.00 | 0.00 | 0.00 | 36 | 1010.0 |
| 20260506112505 | 15 | 24 | 8.0 | 12.9 | 0.00 | 0.00 | 0.00 | 35 | 1010.0 |
| 20260506111505 | 15 | 47 | 8.0 | 12.9 | 0.00 | 0.00 | 0.00 | 36 | 1010.0 |
| 20260506110005 | 14 | 321 | 1.6 | 11.3 | 0.00 | 0.00 | 0.00 | 35 | 1010.0 |
| 20260506105504 | 14 | 26 | 3.2 | 9.7 | 0.00 | 0.00 | 0.00 | 36 | 1010.0 |
| 20260506105005 | 15 | 63 | 6.4 | 11.3 | 0.00 | 0.00 | 0.00 | 36 | 1010.0 |
| 20260506104004 | 14 | 334 | 9.7 | 17.7 | 0.00 | 0.00 | 0.00 | 36 | 1010.0 |
| 20260506103504 | 14 | 12 | 6.4 | 16.1 | 0.00 | 0.00 | 0.00 | 36 | 1010.0 |
| 20260506103004 | 14 | 86 | 4.8 | 12.9 | 0.00 | 0.00 | 0.00 | 35 | 1010.0 |
| 20260506102505 | 14 | 80 | 8.0 | 14.5 | 0.00 | 0.00 | 0.00 | 37 | 1010.0 |
| 20260506102005 | 14 | 89 | 9.7 | 14.5 | 0.00 | 0.00 | 0.00 | 36 | 1010.0 |
| 20260506101505 | 14 | 87 | 8.0 | 16.1 | 0.00 | 0.00 | 0.00 | 39 | 1010.0 |
| 20260506101004 | 14 | 56 | 9.7 | 19.3 | 0.00 | 0.00 | 0.00 | 37 | 1010.0 |
| 20260506100505 | 14 | 83 | 11.3 | 19.3 | 0.00 | 0.00 | 0.00 | 36 | 1010.0 |
| 20260506100005 | 14 | 92 | 6.4 | 16.1 | 0.00 | 0.00 | 0.00 | 38 | 1010.0 |
| 20260506095505 | 14 | 63 | 4.8 | 12.9 | 0.00 | 0.00 | 0.00 | 39 | 1010.0 |
| 20260506095005 | 14 | 75 | 11.3 | 17.7 | 0.00 | 0.00 | 0.00 | 37 | 1010.0 |
| 20260506094505 | 14 | 92 | 11.3 | 17.7 | 0.00 | 0.00 | 0.00 | 37 | 1010.0 |
| 20260506093504 | 13 | 26 | 8.0 | 11.3 | 0.00 | 0.00 | 0.00 | 36 | 1010.0 |
| 20260506093005 | 14 | 50 | 8.0 | 12.9 | 0.00 | 0.00 | 0.00 | 37 | 1010.0 |
| 20260506092504 | 14 | 90 | 9.7 | 19.3 | 0.00 | 0.00 | 0.00 | 38 | 1010.0 |
| 20260506092005 | 13 | 82 | 11.3 | 19.3 | 0.00 | 0.00 | 0.00 | 39 | 1010.0 |
| 20260506091504 | 13 | 52 | 9.7 | 17.7 | 0.00 | 0.00 | 0.00 | 38 | 1010.0 |
| 20260506091006 | 13 | 38 | 9.7 | 14.5 | 0.00 | 0.00 | 0.00 | 38 | 1010.0 |
| 20260506090504 | 13 | 62 | 9.7 | 14.5 | 0.00 | 0.00 | 0.00 | 37 | 1010.0 |
| 20260506090006 | 13 | 89 | 11.3 | 19.3 | 0.00 | 0.00 | 0.00 | 40 | 1010.0 |
| 20260506085004 | 13 | 92 | 12.9 | 20.9 | 0.00 | 0.00 | 0.00 | 38 | 1009.0 |
| 20260506084505 | 13 | 89 | 12.9 | 20.9 | 0.00 | 0.00 | 0.00 | 40 | 1009.0 |
| 20260506084005 | 13 | 57 | 11.3 | 19.3 | 0.00 | 0.00 | 0.00 | 40 | 1009.0 |
| 20260506083505 | 13 | 55 | 11.3 | 16.1 | 0.00 | 0.00 | 0.00 | 39 | 1009.0 |
| 20260506082505 | 13 | 76 | 11.3 | 16.1 | 0.00 | 0.00 | 0.00 | 41 | 1009.0 |
| 20260506082006 | 13 | 71 | 11.3 | 16.1 | 0.00 | 0.00 | 0.00 | 41 | 1009.0 |
| 20260506081504 | 13 | 63 | 11.3 | 17.7 | 0.00 | 0.00 | 0.00 | 42 | 1009.0 |
| 20260506080504 | 13 | 76 | 11.3 | 14.5 | 0.00 | 0.00 | 0.00 | 43 | 1010.0 |
| 20260506073504 | 12 | 91 | 12.9 | 20.9 | 0.00 | 0.00 | 0.00 | 44 | 1010.0 |
| 20260506073005 | 12 | 77 | 12.9 | 22.5 | 0.00 | 0.00 | 0.00 | 44 | 1010.0 |
| 20260506072504 | 11 | 69 | 12.9 | 22.5 | 0.00 | 0.00 | 0.00 | 44 | 1010.0 |
| 20260506072006 | 11 | 72 | 12.9 | 19.3 | 0.00 | 0.00 | 0.00 | 44 | 1010.0 |
| 20260506071504 | 11 | 79 | 14.5 | 19.3 | 0.00 | 0.00 | 0.00 | 43 | 1010.0 |
| 20260506071005 | 11 | 82 | 14.5 | 17.7 | 0.00 | 0.00 | 0.00 | 45 | 1010.0 |
| 20260506070504 | 11 | 84 | 12.9 | 17.7 | 0.00 | 0.00 | 0.00 | 46 | 1010.0 |
| 20260506062505 | 9 | 72 | 11.3 | 17.7 | 0.00 | 0.00 | 0.00 | 49 | 1010.0 |
| 20260506062004 | 8 | 66 | 6.4 | 16.1 | 0.00 | 0.00 | 0.00 | 48 | 1010.0 |
| 20260506061504 | 8 | 67 | 3.2 | 8.0 | 0.00 | 0.00 | 0.00 | 49 | 1010.0 |